Terminal Aerodrome Forecast
Issued by NWS

Home | Current Version | Previous Version | Text Only | Print | Product List | Glossary On
Versions: 1 2 3 4 5 6 7 8 9 10 11 12 13 14 15 16
000
FTUS41 KILN 311100
TAFLCK
TAF
KLCK 311137Z 3112/0112 21005KT P6SM OVC050
     FM311700 26010KT P6SM -SHRA OVC025
     FM312100 30012G20KT P6SM -SHRA OVC018
     FM010000 32014G23KT P6SM -SHRA OVC018
     FM010400 33016G26KT 5SM -RA BR OVC009=

USA.gov is the U.S. government's official web portal to all federal, state and local government web resources and services.